| time (UTC) | temp C | wind direction | speed KPH | gust KPH | rain 1hr cm | rain 24hr cm | rain mn cm | humidity % | barometer mb |
| 20260503054521 | 12 | 183 | 4.8 | 11.3 | 0.00 | 0.03 | 0.03 | 66 | 1014.0 |
| 20260503053013 | 12 | 6 | 3.2 | 14.5 | 0.00 | 0.03 | 0.03 | 63 | 1013.7 |
| 20260503051509 | 12 | 12 | 11.3 | 22.5 | 0.00 | 0.03 | 0.03 | 66 | 1013.5 |
| 20260503050009 | 12 | 29 | 11.3 | 17.7 | 0.00 | 0.03 | 0.03 | 69 | 1013.7 |
| 20260503044509 | 12 | 11 | 11.3 | 19.3 | 0.00 | 0.03 | 0.03 | 68 | 1013.4 |
| 20260503043003 | 12 | 27 | 11.3 | 24.1 | 0.00 | 0.03 | 0.03 | 66 | 1013.5 |
| 20260503041501 | 12 | 11 | 11.3 | 22.5 | 0.00 | 0.03 | 0.03 | 66 | 1013.5 |
| 20260503040100 | 12 | 315 | 11.3 | 22.5 | 0.00 | 0.03 | 0.03 | 67 | 1013.4 |
| 20260503034557 | 13 | 6 | 6.4 | 16.1 | 0.00 | 0.03 | 0.03 | 65 | 1013.0 |
| 20260503033054 | 13 | 303 | 4.8 | 17.7 | 0.00 | 0.03 | 0.03 | 62 | 1013.1 |
| 20260503031552 | 13 | 318 | 4.8 | 20.9 | 0.03 | 0.03 | 0.03 | 61 | 1012.8 |
| 20260503030054 | 13 | 342 | 4.8 | 12.9 | 0.03 | 0.03 | 0.03 | 65 | 1012.6 |
| 20260503024548 | 13 | 333 | 3.2 | 9.7 | 0.03 | 0.03 | 0.03 | 62 | 1012.7 |
| 20260503023047 | 14 | 31 | 6.4 | 16.1 | 0.03 | 0.03 | 0.03 | 58 | 1012.4 |
| 20260503021546 | 16 | 53 | 14.5 | 25.7 | 0.00 | 0.00 | 0.00 | 51 | 1012.4 |
| 20260503020043 | 17 | 303 | 9.7 | 22.5 | 0.00 | 0.00 | 0.00 | 41 | 1012.2 |
| 20260503014538 | 17 | 333 | 4.8 | 14.5 | 0.00 | 0.00 | 0.00 | 40 | 1012.0 |
| 20260503013039 | 18 | 268 | 0.0 | 6.4 | 0.00 | 0.00 | 0.00 | 38 | 1011.9 |
| 20260503011546 | 17 | 97 | 4.8 | 17.7 | 0.00 | 0.00 | 0.00 | 38 | 1011.8 |
| 20260503010038 | 17 | 90 | 8.0 | 20.9 | 0.00 | 0.00 | 0.00 | 39 | 1011.9 |
| 20260503004530 | 17 | 72 | 6.4 | 20.9 | 0.00 | 0.00 | 0.00 | 41 | 1012.0 |
| 20260503003028 | 17 | 64 | 9.7 | 29.0 | 0.00 | 0.00 | 0.00 | 42 | 1012.0 |
| 20260503001528 | 18 | 72 | 3.2 | 17.7 | 0.00 | 0.00 | 0.00 | 42 | 1012.1 |
| 20260503000040 | 19 | 107 | 0.0 | 8.0 | 0.00 | 0.00 | 0.00 | 33 | 1011.9 |
| 20260502234523 | 18 | 107 | 0.0 | 6.4 | 0.00 | 0.00 | 0.00 | 34 | 1011.8 |
| 20260502233020 | 20 | 89 | 3.2 | 9.7 | 0.00 | 0.00 | 0.00 | 32 | 1012.1 |
| 20260502231519 | 20 | 163 | 1.6 | 11.3 | 0.00 | 0.00 | 0.00 | 29 | 1011.9 |
| 20260502230015 | 20 | 160 | 3.2 | 12.9 | 0.00 | 0.00 | 0.00 | 28 | 1012.0 |
| 20260502224511 | 20 | 65 | 8.0 | 24.1 | 0.00 | 0.00 | 0.00 | 29 | 1012.0 |
| 20260502223024 | 22 | 280 | 6.4 | 14.5 | 0.00 | 0.00 | 0.00 | 28 | 1012.1 |
| 20260502221505 | 21 | 188 | 6.4 | 14.5 | 0.00 | 0.00 | 0.00 | 29 | 1012.3 |
| 20260502220004 | 21 | 222 | 1.6 | 11.3 | 0.00 | 0.00 | 0.00 | 29 | 1012.5 |
| 20260502214503 | 21 | 122 | 3.2 | 6.4 | 0.00 | 0.00 | 0.00 | 29 | 1012.6 |
| 20260502213059 | 21 | 146 | 1.6 | 9.7 | 0.00 | 0.00 | 0.00 | 29 | 1012.7 |
| 20260502211555 | 21 | 160 | 0.0 | 8.0 | 0.00 | 0.00 | 0.00 | 28 | 1012.9 |
| 20260502210108 | 21 | 214 | 0.0 | 9.7 | 0.00 | 0.00 | 0.00 | 28 | 1013.1 |
| 20260502204550 | 21 | 250 | 1.6 | 11.3 | 0.00 | 0.00 | 0.00 | 28 | 1013.2 |
| 20260502203044 | 21 | 240 | 3.2 | 8.0 | 0.00 | 0.00 | 0.00 | 28 | 1013.2 |
| 20260502201546 | 21 | 121 | 3.2 | 8.0 | 0.00 | 0.00 | 0.00 | 28 | 1013.3 |
| 20260502200053 | 20 | 244 | 0.0 | 6.4 | 0.00 | 0.00 | 0.00 | 31 | 1013.5 |
| 20260502194539 | 20 | 219 | 1.6 | 8.0 | 0.00 | 0.00 | 0.00 | 28 | 1013.6 |
| 20260502193039 | 20 | 222 | 0.0 | 4.8 | 0.00 | 0.00 | 0.00 | 28 | 1013.7 |
| 20260502191530 | 20 | 262 | 3.2 | 8.0 | 0.00 | 0.00 | 0.00 | 29 | 1014.0 |
| 20260502190040 | 20 | 246 | 4.8 | 9.7 | 0.00 | 0.00 | 0.00 | 28 | 1014.1 |
| 20260502184525 | 21 | 230 | 1.6 | 11.3 | 0.00 | 0.00 | 0.00 | 28 | 1014.2 |
| 20260502183020 | 20 | 214 | 3.2 | 11.3 | 0.00 | 0.00 | 0.00 | 32 | 1014.4 |
| 20260502181516 | 19 | 118 | 3.2 | 9.7 | 0.00 | 0.00 | 0.00 | 32 | 1014.6 |
| 20260502170106 | 16 | 207 | 1.6 | 8.0 | 0.00 | 0.00 | 0.00 | 45 | 1015.0 |
| 20260502163057 | 16 | 280 | 1.6 | 4.8 | 0.00 | 0.00 | 0.00 | 43 | 1015.1 |
| 20260502161549 | 16 | 163 | 0.0 | 1.6 | 0.00 | 0.00 | 0.00 | 42 | 1015.2 |
| 20260502151555 | 11 | 25 | 0.0 | 1.6 | 0.00 | 0.00 | 0.00 | 50 | 1015.1 |
| 20260502123001 | 8 | 321 | 0.0 | 0.0 | 0.00 | 0.00 | 0.00 | 55 | 1014.1 |
| 20260502121559 | 8 | 51 | 0.0 | 0.0 | 0.00 | 0.00 | 0.00 | 51 | 1014.0 |
| 20260502114555 | 8 | 41 | 0.0 | 1.6 | 0.00 | 0.00 | 0.00 | 50 | 1014.2 |
| 20260502113054 | 8 | 41 | 0.0 | 1.6 | 0.00 | 0.00 | 0.00 | 49 | 1014.3 |
| 20260502111550 | 9 | 40 | 0.0 | 4.8 | 0.00 | 0.00 | 0.00 | 49 | 1014.4 |
| 20260502110057 | 10 | 113 | 0.0 | 1.6 | 0.00 | 0.00 | 0.00 | 49 | 1014.2 |
| 20260502104544 | 9 | 92 | 0.0 | 0.0 | 0.00 | 0.00 | 0.00 | 49 | 1014.1 |
| 20260502103042 | 9 | 91 | 0.0 | 1.6 | 0.00 | 0.00 | 0.00 | 48 | 1014.1 |
| 20260502101538 | 9 | 91 | 0.0 | 1.6 | 0.00 | 0.00 | 0.00 | 48 | 1014.1 |
| 20260502091526 | 9 | 113 | 0.0 | 0.0 | 0.00 | 0.00 | 0.00 | 50 | 1014.3 |